Terminal Aerodrome Forecast
Issued by NWS

Home | Current Version | Previous Version | Text Only | Print | Product List | Glossary On
Versions: 1 2 3 4 5 6 7 8 9 10 11 12 13 14 15 16 17 18 19 20 21 22 23 24 25 26 27 28 29
000
FTUS46 KOTX 201738
TAFSFF
TAF
KSFF 201738Z 2018/2118 24007KT P6SM SCT050 BKN100
     FM210130 23006G12KT P6SM VCTS SCT060CB BKN090 BKN150
     FM210500 VRB03KT P6SM VCSH BKN080 OVC150
     FM210800 VRB03KT P6SM SCT100=

USA.gov is the U.S. government's official web portal to all federal, state and local government web resources and services.